| time (UTC) | temp F | wind direction | speed knots | gust knots | rain 1hr in | rain 24hr in | rain mn in | humidity % | barometer mb |
| 20260504195006 | 64 | 48 | 2.6 | 4.3 | 0.00 | 0.00 | 0.00 | 60 | 1010.0 |
| 20260504194502 | 65 | 228 | 5.2 | 7.8 | 0.00 | 0.00 | 0.00 | 60 | 1010.1 |
| 20260504193957 | 65 | 148 | 1.7 | 1.7 | 0.00 | 0.00 | 0.00 | 60 | 1010.2 |
| 20260504193455 | 66 | 249 | 5.2 | 6.1 | 0.00 | 0.00 | 0.00 | 57 | 1010.3 |
| 20260504192953 | 66 | 343 | 3.5 | 4.3 | 0.00 | 0.00 | 0.00 | 57 | 1010.3 |
| 20260504192450 | 67 | 275 | 1.7 | 2.6 | 0.00 | 0.00 | 0.00 | 57 | 1010.3 |
| 20260504191949 | 66 | 137 | 2.6 | 6.1 | 0.00 | 0.00 | 0.00 | 57 | 1010.4 |
| 20260504191447 | 66 | 335 | 1.7 | 2.6 | 0.00 | 0.00 | 0.00 | 57 | 1010.2 |
| 20260504190942 | 66 | 251 | 5.2 | 7.8 | 0.00 | 0.00 | 0.00 | 58 | 1010.5 |
| 20260504190438 | 65 | 142 | 4.3 | 4.3 | 0.00 | 0.00 | 0.00 | 58 | 1010.4 |
| 20260504185935 | 66 | 238 | 6.1 | 7.8 | 0.00 | 0.00 | 0.00 | 55 | 1010.8 |
| 20260504185432 | 68 | 311 | 1.7 | 2.6 | 0.00 | 0.00 | 0.00 | 53 | 1010.6 |
| 20260504184928 | 67 | 30 | 2.6 | 4.3 | 0.00 | 0.00 | 0.00 | 52 | 1010.4 |
| 20260504184424 | 68 | 134 | 1.7 | 2.6 | 0.00 | 0.00 | 0.00 | 52 | 1010.6 |
| 20260504183920 | 69 | 211 | 7.0 | 12.2 | 0.00 | 0.00 | 0.00 | 49 | 1010.8 |
| 20260504183417 | 71 | 242 | 6.1 | 8.7 | 0.00 | 0.00 | 0.00 | 44 | 1010.5 |
| 20260504182915 | 75 | 228 | 1.7 | 1.7 | 0.00 | 0.00 | 0.00 | 29 | 1010.4 |
| 20260504182412 | 74 | 130 | 0.9 | 1.7 | 0.00 | 0.00 | 0.00 | 30 | 1010.4 |
| 20260504181908 | 74 | 190 | 3.5 | 7.8 | 0.00 | 0.00 | 0.00 | 29 | 1010.3 |
| 20260504181406 | 75 | 235 | 4.3 | 4.3 | 0.00 | 0.00 | 0.00 | 30 | 1010.7 |
| 20260504180905 | 74 | 305 | 0.9 | 1.7 | 0.00 | 0.00 | 0.00 | 29 | 1010.7 |
| 20260504180403 | 74 | 270 | 3.5 | 4.3 | 0.00 | 0.00 | 0.00 | 29 | 1011.0 |
| 20260504175901 | 74 | 285 | 2.6 | 4.3 | 0.00 | 0.00 | 0.00 | 30 | 1011.0 |
| 20260504175357 | 74 | 110 | 0.9 | 1.7 | 0.00 | 0.00 | 0.00 | 30 | 1010.9 |
| 20260504174855 | 73 | 277 | 2.6 | 2.6 | 0.00 | 0.00 | 0.00 | 30 | 1011.2 |
| 20260504174352 | 74 | 84 | 0.9 | 1.7 | 0.00 | 0.00 | 0.00 | 30 | 1011.1 |
| 20260504173849 | 73 | 250 | 3.5 | 4.3 | 0.00 | 0.00 | 0.00 | 29 | 1011.0 |
| 20260504173346 | 73 | 15 | 0.0 | 0.0 | 0.00 | 0.00 | 0.00 | 29 | 1010.9 |
| 20260504172843 | 73 | 259 | 2.6 | 2.6 | 0.00 | 0.00 | 0.00 | 29 | 1011.0 |
| 20260504172340 | 74 | 150 | 3.5 | 4.3 | 0.00 | 0.00 | 0.00 | 29 | 1011.2 |
| 20260504171835 | 73 | 280 | 1.7 | 1.7 | 0.00 | 0.00 | 0.00 | 29 | 1011.3 |
| 20260504171333 | 74 | 132 | 2.6 | 2.6 | 0.00 | 0.00 | 0.00 | 29 | 1011.3 |
| 20260504170830 | 73 | 111 | 1.7 | 1.7 | 0.00 | 0.00 | 0.00 | 29 | 1011.4 |
| 20260504170327 | 73 | 301 | 1.7 | 2.6 | 0.00 | 0.00 | 0.00 | 29 | 1011.3 |
| 20260504160245 | 71 | 46 | 0.9 | 1.7 | 0.00 | 0.00 | 0.00 | 29 | 1012.2 |
| 20260504150711 | 69 | 265 | 6.1 | 8.7 | 0.00 | 0.00 | 0.00 | 31 | 1013.0 |
| 20260504150207 | 69 | 115 | 2.6 | 2.6 | 0.00 | 0.00 | 0.00 | 31 | 1013.1 |
| 20260504141136 | 66 | 128 | 1.7 | 1.7 | 0.00 | 0.00 | 0.00 | 38 | 1013.0 |
| 20260504140633 | 66 | 275 | 0.9 | 2.6 | 0.00 | 0.00 | 0.00 | 37 | 1013.2 |
| 20260504140129 | 66 | 87 | 2.6 | 2.6 | 0.00 | 0.00 | 0.00 | 39 | 1013.1 |
| 20260504130557 | 62 | 74 | 0.9 | 1.7 | 0.00 | 0.00 | 0.00 | 45 | 1013.5 |
| 20260504110445 | 54 | 82 | 0.0 | 0.0 | 0.00 | 0.00 | 0.00 | 57 | 1013.9 |
| 20260504100401 | 51 | 303 | 1.7 | 2.6 | 0.00 | 0.00 | 0.00 | 52 | 1013.9 |
| 20260504081748 | 51 | 77 | 0.0 | 0.0 | 0.00 | 0.00 | 0.00 | 48 | 1013.2 |
| 20260504081245 | 51 | 46 | 0.0 | 1.7 | 0.00 | 0.00 | 0.00 | 48 | 1013.1 |
| 20260504080741 | 51 | 195 | 1.7 | 1.7 | 0.00 | 0.00 | 0.00 | 48 | 1013.3 |
| 20260504080238 | 51 | 83 | 0.0 | 0.0 | 0.00 | 0.00 | 0.00 | 48 | 1013.1 |
| 20260504070205 | 52 | 59 | 0.0 | 0.0 | 0.00 | 0.00 | 0.00 | 46 | 1013.0 |
| 20260504060126 | 53 | 342 | 0.9 | 1.7 | 0.00 | 0.00 | 0.00 | 46 | 1012.9 |
| 20260504050554 | 53 | 43 | 0.0 | 1.7 | 0.00 | 0.00 | 0.00 | 45 | 1012.8 |
| 20260504045548 | 53 | 75 | 0.0 | 0.0 | 0.00 | 0.00 | 0.00 | 44 | 1012.6 |
| 20260504045043 | 54 | 344 | 0.9 | 1.7 | 0.00 | 0.00 | 0.00 | 43 | 1012.7 |
| 20260504044541 | 54 | 201 | 0.9 | 1.7 | 0.00 | 0.00 | 0.00 | 43 | 1012.7 |
| 20260504044038 | 54 | 97 | 0.0 | 1.7 | 0.00 | 0.00 | 0.00 | 44 | 1012.5 |
| 20260504043535 | 54 | 350 | 0.0 | 0.0 | 0.00 | 0.00 | 0.00 | 44 | 1012.6 |
| 20260504043032 | 54 | 97 | 0.0 | 1.7 | 0.00 | 0.00 | 0.00 | 44 | 1012.5 |
| 20260504042529 | 54 | 84 | 0.0 | 0.0 | 0.00 | 0.00 | 0.00 | 43 | 1012.6 |
| 20260504042026 | 54 | 183 | 0.0 | 0.0 | 0.00 | 0.00 | 0.00 | 43 | 1012.4 |
| 20260504041522 | 54 | 281 | 1.7 | 2.6 | 0.00 | 0.00 | 0.00 | 43 | 1012.5 |
| 20260504041018 | 54 | 272 | 0.9 | 2.6 | 0.00 | 0.00 | 0.00 | 43 | 1012.3 |
| 20260504040516 | 54 | 85 | 0.0 | 0.0 | 0.00 | 0.00 | 0.00 | 42 | 1012.3 |
| 20260504040012 | 54 | 78 | 0.0 | 0.0 | 0.00 | 0.00 | 0.00 | 42 | 1012.4 |
| 20260504035509 | 54 | 64 | 0.0 | 0.0 | 0.00 | 0.00 | 0.00 | 42 | 1012.3 |
| 20260504035005 | 54 | 245 | 0.9 | 1.7 | 0.00 | 0.00 | 0.00 | 41 | 1012.3 |
| 20260504034503 | 54 | 113 | 0.0 | 1.7 | 0.00 | 0.00 | 0.00 | 41 | 1012.4 |
| 20260504034000 | 54 | 88 | 0.0 | 0.0 | 0.00 | 0.00 | 0.00 | 41 | 1012.5 |
| 20260504033458 | 55 | 265 | 0.0 | 1.7 | 0.00 | 0.00 | 0.00 | 41 | 1012.3 |
| 20260504032955 | 55 | 268 | 0.9 | 1.7 | 0.00 | 0.00 | 0.00 | 40 | 1012.4 |
| 20260504032452 | 55 | 80 | 0.0 | 0.0 | 0.00 | 0.00 | 0.00 | 40 | 1012.1 |
| 20260504031948 | 55 | 51 | 0.0 | 0.0 | 0.00 | 0.00 | 0.00 | 40 | 1012.4 |
| 20260504031445 | 55 | 65 | 0.0 | 0.0 | 0.00 | 0.00 | 0.00 | 40 | 1012.1 |
| 20260504030942 | 55 | 18 | 0.9 | 1.7 | 0.00 | 0.00 | 0.00 | 40 | 1012.3 |
| 20260504030439 | 55 | 97 | 0.0 | 0.0 | 0.00 | 0.00 | 0.00 | 40 | 1012.3 |
| 20260504025935 | 55 | 41 | 0.0 | 1.7 | 0.00 | 0.00 | 0.00 | 39 | 1012.1 |
| 20260504025432 | 55 | 115 | 0.0 | 1.7 | 0.00 | 0.00 | 0.00 | 39 | 1012.0 |
| 20260504024929 | 55 | 261 | 0.9 | 1.7 | 0.00 | 0.00 | 0.00 | 38 | 1012.4 |
| 20260504024426 | 55 | 87 | 0.0 | 0.0 | 0.00 | 0.00 | 0.00 | 38 | 1012.3 |
| 20260504023923 | 55 | 276 | 0.0 | 1.7 | 0.00 | 0.00 | 0.00 | 37 | 1012.2 |
| 20260504023419 | 55 | 82 | 0.0 | 0.0 | 0.00 | 0.00 | 0.00 | 37 | 1012.2 |
| 20260504022915 | 55 | 66 | 0.0 | 0.0 | 0.00 | 0.00 | 0.00 | 37 | 1012.2 |
| 20260504022412 | 55 | 62 | 0.0 | 0.0 | 0.00 | 0.00 | 0.00 | 37 | 1012.1 |
| 20260504021908 | 55 | 75 | 0.0 | 0.0 | 0.00 | 0.00 | 0.00 | 37 | 1012.2 |
| 20260504021406 | 55 | 58 | 0.0 | 0.0 | 0.00 | 0.00 | 0.00 | 37 | 1012.1 |
| 20260504020903 | 55 | 67 | 0.0 | 0.0 | 0.00 | 0.00 | 0.00 | 37 | 1012.4 |
| 20260504020359 | 55 | 61 | 0.0 | 0.0 | 0.00 | 0.00 | 0.00 | 37 | 1012.1 |
| 20260504015855 | 55 | 66 | 0.0 | 0.0 | 0.00 | 0.00 | 0.00 | 36 | 1012.2 |
| 20260504015352 | 55 | 67 | 0.0 | 0.0 | 0.00 | 0.00 | 0.00 | 36 | 1012.1 |
| 20260504014848 | 55 | 70 | 0.0 | 0.0 | 0.00 | 0.00 | 0.00 | 36 | 1012.1 |
| 20260504014344 | 55 | 70 | 0.0 | 0.0 | 0.00 | 0.00 | 0.00 | 35 | 1012.2 |
| 20260504013842 | 55 | 76 | 0.0 | 0.0 | 0.00 | 0.00 | 0.00 | 36 | 1012.1 |
| 20260504013339 | 55 | 73 | 0.0 | 0.0 | 0.00 | 0.00 | 0.00 | 36 | 1011.9 |
| 20260504012836 | 55 | 92 | 0.0 | 0.0 | 0.00 | 0.00 | 0.00 | 35 | 1011.9 |
| 20260504012334 | 56 | 58 | 0.0 | 0.0 | 0.00 | 0.00 | 0.00 | 35 | 1011.9 |
| 20260504011831 | 56 | 57 | 0.0 | 0.0 | 0.00 | 0.00 | 0.00 | 34 | 1011.8 |
| 20260504011327 | 57 | 68 | 0.0 | 0.0 | 0.00 | 0.00 | 0.00 | 33 | 1011.7 |
| 20260504010823 | 57 | 75 | 0.0 | 0.0 | 0.00 | 0.00 | 0.00 | 33 | 1011.6 |
| 20260504010319 | 57 | 11 | 0.0 | 1.7 | 0.00 | 0.00 | 0.00 | 33 | 1011.7 |
| 20260504005816 | 57 | 84 | 0.0 | 0.0 | 0.00 | 0.00 | 0.00 | 33 | 1011.4 |
| 20260504005313 | 58 | 78 | 0.0 | 0.0 | 0.00 | 0.00 | 0.00 | 32 | 1011.4 |
| 20260504004810 | 58 | 96 | 0.0 | 0.0 | 0.00 | 0.00 | 0.00 | 31 | 1011.5 |
| 20260504004308 | 58 | 46 | 0.9 | 1.7 | 0.00 | 0.00 | 0.00 | 31 | 1011.4 |
| 20260504003804 | 58 | 92 | 0.0 | 0.0 | 0.00 | 0.00 | 0.00 | 30 | 1011.5 |
| 20260504003301 | 58 | 52 | 0.0 | 0.0 | 0.00 | 0.00 | 0.00 | 30 | 1011.2 |
| 20260504002757 | 58 | 72 | 0.0 | 0.0 | 0.00 | 0.00 | 0.00 | 29 | 1011.1 |
| 20260504002255 | 58 | 84 | 0.0 | 0.0 | 0.00 | 0.00 | 0.00 | 29 | 1011.0 |
| 20260504001752 | 59 | 85 | 0.0 | 0.0 | 0.00 | 0.00 | 0.00 | 28 | 1011.0 |
| 20260504001249 | 59 | 43 | 0.9 | 1.7 | 0.00 | 0.00 | 0.00 | 28 | 1010.9 |
| 20260504000746 | 59 | 68 | 0.0 | 0.0 | 0.00 | 0.00 | 0.00 | 27 | 1010.8 |
| 20260504000243 | 59 | 64 | 0.0 | 0.0 | 0.00 | 0.00 | 0.00 | 27 | 1010.7 |
| 20260503235741 | 59 | 35 | 0.0 | 0.0 | 0.00 | 0.00 | 0.00 | 27 | 1010.7 |
| 20260503235238 | 59 | 345 | 0.0 | 1.7 | 0.00 | 0.00 | 0.00 | 27 | 1010.7 |
| 20260503234735 | 59 | 51 | 0.0 | 1.7 | 0.00 | 0.00 | 0.00 | 27 | 1010.8 |
| 20260503234233 | 60 | 8 | 1.7 | 2.6 | 0.00 | 0.00 | 0.00 | 26 | 1010.3 |
| 20260503233730 | 60 | 7 | 1.7 | 1.7 | 0.00 | 0.00 | 0.00 | 26 | 1010.5 |
| 20260503233226 | 60 | 9 | 1.7 | 2.6 | 0.00 | 0.00 | 0.00 | 26 | 1010.8 |
| 20260503232723 | 60 | 271 | 1.7 | 2.6 | 0.00 | 0.00 | 0.00 | 26 | 1010.5 |
| 20260503232220 | 60 | 17 | 1.7 | 2.6 | 0.00 | 0.00 | 0.00 | 25 | 1010.2 |
| 20260503231719 | 60 | 274 | 2.6 | 2.6 | 0.00 | 0.00 | 0.00 | 25 | 1010.2 |
| 20260503231215 | 60 | 304 | 1.7 | 2.6 | 0.00 | 0.00 | 0.00 | 25 | 1010.1 |
| 20260503230711 | 60 | 335 | 2.6 | 2.6 | 0.00 | 0.00 | 0.00 | 25 | 1010.5 |
| 20260503230208 | 60 | 96 | 0.9 | 1.7 | 0.00 | 0.00 | 0.00 | 25 | 1010.1 |
| 20260503225705 | 60 | 0 | 3.5 | 4.3 | 0.00 | 0.00 | 0.00 | 24 | 1010.3 |
| 20260503225200 | 60 | 96 | 4.3 | 6.1 | 0.00 | 0.00 | 0.00 | 24 | 1010.4 |
| 20260503224658 | 60 | 90 | 0.9 | 2.6 | 0.00 | 0.00 | 0.00 | 24 | 1010.2 |
| 20260503224155 | 60 | 313 | 2.6 | 2.6 | 0.00 | 0.00 | 0.00 | 24 | 1010.3 |
| 20260503223653 | 60 | 73 | 2.6 | 4.3 | 0.00 | 0.00 | 0.00 | 24 | 1010.1 |
| 20260503223149 | 60 | 277 | 2.6 | 2.6 | 0.00 | 0.00 | 0.00 | 24 | 1010.2 |
| 20260503222646 | 60 | 2 | 2.6 | 4.3 | 0.00 | 0.00 | 0.00 | 24 | 1010.0 |
| 20260503222144 | 60 | 261 | 2.6 | 2.6 | 0.00 | 0.00 | 0.00 | 23 | 1010.1 |
| 20260503221643 | 60 | 286 | 4.3 | 6.1 | 0.00 | 0.00 | 0.00 | 24 | 1010.0 |
| 20260503221139 | 60 | 300 | 4.3 | 4.3 | 0.00 | 0.00 | 0.00 | 23 | 1010.1 |
| 20260503220636 | 60 | 270 | 4.3 | 14.8 | 0.00 | 0.00 | 0.00 | 24 | 1010.1 |
| 20260503220132 | 60 | 11 | 6.1 | 7.8 | 0.00 | 0.00 | 0.00 | 23 | 1010.3 |
| 20260503215624 | 60 | 356 | 3.5 | 4.3 | 0.00 | 0.00 | 0.00 | 24 | 1010.2 |
| 20260503215120 | 61 | 28 | 2.6 | 4.3 | 0.00 | 0.00 | 0.00 | 24 | 1010.1 |
| 20260503214619 | 61 | 250 | 2.6 | 4.3 | 0.00 | 0.00 | 0.00 | 24 | 1010.0 |
| 20260503214114 | 61 | 66 | 3.5 | 4.3 | 0.00 | 0.00 | 0.00 | 24 | 1010.0 |
| 20260503213609 | 61 | 261 | 4.3 | 4.3 | 0.00 | 0.00 | 0.00 | 24 | 1009.9 |
| 20260503213104 | 61 | 79 | 2.6 | 4.3 | 0.00 | 0.00 | 0.00 | 24 | 1010.1 |
| 20260503212602 | 61 | 93 | 0.9 | 1.7 | 0.00 | 0.00 | 0.00 | 24 | 1009.9 |
| 20260503212059 | 62 | 355 | 4.3 | 6.1 | 0.00 | 0.00 | 0.00 | 23 | 1010.1 |
| 20260503211556 | 61 | 12 | 0.9 | 1.7 | 0.00 | 0.00 | 0.00 | 24 | 1010.0 |
| 20260503211052 | 61 | 32 | 2.6 | 2.6 | 0.00 | 0.00 | 0.00 | 24 | 1009.9 |
| 20260503210549 | 61 | 40 | 2.6 | 4.3 | 0.00 | 0.00 | 0.00 | 24 | 1009.9 |
| 20260503210044 | 61 | 265 | 2.6 | 4.3 | 0.00 | 0.00 | 0.00 | 24 | 1010.0 |
| 20260503205541 | 60 | 218 | 4.3 | 6.1 | 0.00 | 0.00 | 0.00 | 24 | 1010.1 |
| 20260503205038 | 61 | 289 | 3.5 | 4.3 | 0.00 | 0.00 | 0.00 | 24 | 1009.9 |
| 20260503204535 | 61 | 180 | 2.6 | 2.6 | 0.00 | 0.00 | 0.00 | 24 | 1009.9 |
| 20260503204032 | 61 | 293 | 4.3 | 7.8 | 0.00 | 0.00 | 0.00 | 24 | 1009.8 |
| 20260503203529 | 61 | 328 | 4.3 | 7.8 | 0.00 | 0.00 | 0.00 | 24 | 1010.0 |
| 20260503203026 | 61 | 272 | 2.6 | 2.6 | 0.00 | 0.00 | 0.00 | 24 | 1010.0 |
| 20260503202524 | 61 | 248 | 0.9 | 1.7 | 0.00 | 0.00 | 0.00 | 24 | 1010.0 |
| 20260503202022 | 61 | 33 | 3.5 | 4.3 | 0.00 | 0.00 | 0.00 | 24 | 1010.0 |
| 20260503201520 | 61 | 330 | 4.3 | 6.1 | 0.00 | 0.00 | 0.00 | 25 | 1010.1 |
| 20260503201017 | 62 | 236 | 4.3 | 6.1 | 0.00 | 0.00 | 0.00 | 24 | 1010.2 |
| 20260503200513 | 60 | 261 | 2.6 | 4.3 | 0.00 | 0.00 | 0.00 | 25 | 1010.3 |
| 20260503200010 | 60 | 356 | 5.2 | 10.4 | 0.00 | 0.00 | 0.00 | 26 | 1010.2 |
| 20260503195507 | 58 | 294 | 4.3 | 4.3 | 0.00 | 0.00 | 0.00 | 27 | 1010.1 |